Home > Time Zones > World Clock > Weather > India > Theni > Past weeks

Flag for India Weather past 2 weeks in Theni, Tamil Nadu, India

Now
86 °F

Passing clouds.


Feels Like: 89 °F
Forecast: 73 / 93 °F
Wind: 15 mph from Southwest

Location: Coimbatore / Peelamedu

Current Time: Aug 27, 2014 at 2:58:00 PM

Latest Report: Aug 27, 2014 at 2:30 PM


Visibility: 4 mi

Pressure: 29.80 "Hg

Humidity: 55%

Dew point: 68 °F

Location of TheniLocation

Historic Weather in Theni — Graph

°F

Theni temperature yesterday

Maximum temperature yesterday: 91 °F (at 1:00 PM)
Minimum temperature yesterday: 73 °F (at 5:30 AM)
Average temperature yesterday: 81 °F

Past Weeks' High & Low Weather Summary

 TemperatureHumidityPressure
High95 °F (Aug 22, 2:00 PM)100% (Aug 23, 5:30 AM)29.95 "Hg (Aug 23, 5:30 AM)
Low72 °F (Aug 13, 5:30 AM)39% (Aug 22, 2:00 PM)29.65 "Hg (Aug 21, 4:30 PM)
Average81 °F73%29.84 "Hg
* Reported Aug 12 1:30 PM — Aug 27 2:00 PM, Theni, Weather by CustomWeather, © 2014

Note: Actual official high and low records may vary slightly from our data, if they occured in-between our weather recording intervals... More about our weather records

Advertising

Theni weather history for previous 24 hours

 ConditionsComfort  
Time TempWeatherWind HumidityBarometerVisibility
2:00 PM
Aug 27
86 °FPassing clouds.14 mph49%29.80 "Hg4 mi
1:30 PM86 °FPassing clouds.12 mph49%29.83 "Hg4 mi
1:00 PM86 °FPassing clouds.16 mph46%29.83 "Hg4 mi
12:30 PM86 °FPassing clouds.15 mph49%29.83 "Hg4 mi
12:00 PM86 °FPassing clouds.15 mph55%29.86 "Hg4 mi
11:30 AM84 °FScattered clouds.12 mph58%29.86 "Hg4 mi
11:00 AM84 °FScattered clouds.10 mph58%29.89 "Hg4 mi
10:30 AM82 °FScattered clouds.9 mph62%29.89 "Hg4 mi
10:00 AM81 °FScattered clouds.10 mph66%29.89 "Hg4 mi
9:30 AM79 °FScattered clouds.9 mph74%29.89 "Hg4 mi
9:00 AM77 °FScattered clouds.12 mph79%29.89 "Hg4 mi
8:30 AM77 °FScattered clouds.7 mph79%29.89 "Hg4 mi
8:00 AM77 °FScattered clouds.7 mph79%29.86 "Hg4 mi
7:30 AM75 °FBroken clouds.7 mph89%29.86 "Hg4 mi
7:00 AM75 °FBroken clouds.8 mph89%29.86 "Hg3 mi
6:00 AM75 °FPassing clouds.10 mph89%29.86 "Hg4 mi
5:30 AM75 °FPassing clouds.9 mph89%29.83 "Hg4 mi
4:30 AM73 °FPassing clouds.10 mph94%29.83 "Hg4 mi
3:30 AM73 °FPassing clouds.10 mph94%29.83 "Hg4 mi
2:30 AM75 °FPassing clouds.7 mph89%29.83 "Hg4 mi
1:30 AM75 °FPassing clouds.7 mph89%29.86 "Hg4 mi
12:30 AM75 °FPassing clouds.8 mph89%29.89 "Hg4 mi
11:30 PM
Aug 26
75 °FPassing clouds.9 mph89%29.89 "Hg4 mi
11:00 PM75 °FPassing clouds.12 mph89%29.89 "Hg4 mi
10:30 PM75 °FPassing clouds.10 mph83%29.89 "Hg4 mi
10:00 PM75 °FPassing clouds.12 mph89%29.89 "Hg4 mi
9:30 PM77 °FPassing clouds.10 mph79%29.89 "Hg4 mi
9:00 PM77 °FPassing clouds.8 mph83%29.86 "Hg4 mi
8:30 PM77 °FPassing clouds.12 mph79%29.86 "Hg4 mi
8:00 PM79 °FPassing clouds.10 mph74%29.86 "Hg4 mi
7:00 PM81 °FPassing clouds.12 mph66%29.83 "Hg4 mi
6:30 PM82 °FPassing clouds.12 mph62%29.80 "Hg4 mi
6:00 PM82 °FPassing clouds.14 mph62%29.80 "Hg4 mi
5:30 PM84 °FPassing clouds.10 mph55%29.80 "Hg5 mi
5:00 PM86 °FPassing clouds.16 mph52%29.80 "Hg5 mi
4:30 PM88 °FPassing clouds.15 mph43%29.80 "Hg5 mi
4:00 PM88 °FPassing clouds.15 mph43%29.80 "Hg5 mi
3:30 PM90 °FPassing clouds.15 mph43%29.80 "Hg5 mi
3:00 PM90 °FPassing clouds.10 mph43%29.83 "Hg5 mi
2:30 PM90 °FScattered clouds.14 mph41%29.83 "Hg5 mi
2:00 PM88 °FScattered clouds.15 mph43%29.86 "Hg5 mi
Weather by CustomWeather, © 2014

See weather overviewHow to use our weather pages